[[{"header":{"parameterUnit":"m.s-1","parameterCategory":1,"la1":30.2991,"la2":30.254,"lo1":-89.0895,"lo2":-89.0444,"dy":0.0017,"dx":0.0017,"nx":28,"ny":28,"refTime":"2024-10-16T03:00:00:Z","depth":0,"parameterNumber":2,"parameterNumberName":"U-component_of_WINDS"},"data":[0,0,0,0,0,0,0,0,0,0,0,0,0,0,0,0,0,0,0,0,0,0,0,0,0,0,0,0,0,0,0,0,0,0,0,0,0,0,0,0,0,0,0,0,0,0,0,0,0,0,0,0,0,0,0,0,0,0,-3.1069,-3.1069,0,-3.1072,-3.1072,-3.1072,-3.1004,-3.1002,-3.1,-3.0998,-3.1001,-3.1003,-3.1005,0,0,0,0,0,0,0,0,0,0,0,0,0,-3.1003,-3.1005,-3.1069,-3.1069,-3.1069,-3.1072,-3.1072,-3.1072,-3.1004,-3.1002,-3.1,-3.0997,-3.1001,-3.1003,-3.1005,0,0,0,0,0,0,0,0,0,0,0,0,0,-3.1022,-3.1006,-3.1069,-3.1035,-3.1032,-3.1072,-3.1072,-3.1072,-3.1004,-3.1002,-3.0999,-3.0996,-3.1,-3.1003,-3.1005,-3.1077,0,0,-3.1014,-3.1015,0,0,0,0,0,0,0,0,-3.1021,-3.1024,-3.104,-3.1038,-3.1034,-3.1034,-3.105,-3.1073,-3.1005,-3.1015,-3.0998,-3.0995,-3.1015,-3.1016,-3.1023,-3.1077,-3.1077,-3.1014,-3.1015,-3.1017,-3.1017,0,0,0,0,0,0,0,-3.102,-3.1024,-3.107,-3.104,-3.1037,-3.102,-3.1019,-3.1054,-3.103,-3.1014,-3.1009,-3.101,-3.1013,-3.102,-3.1022,-3.1077,-3.1014,-3.1016,-3.1018,-3.1019,-3.1191,-3.1193,0,0,0,0,0,0,-3.1023,-3.1023,-3.107,-3.107,-3.1021,-3.1023,-3.1023,-3.1037,-3.103,-3.1026,-3.1013,-3.1007,-3.1017,-3.1019,-3.1022,-3.1106,-3.1017,-3.1019,-3.1021,-3.1188,-3.1191,-3.1194,0,0,0,0,0,0,-3.1022,-3.1028,-3.1069,-3.1045,-3.1049,-3.1027,-3.1044,-3.1039,-3.1046,-3.1029,-3.1024,-3.1025,-3.1015,-3.1018,-3.1064,-3.1105,-3.102,-3.1023,-3.1184,-3.1189,-3.1193,-3.1273,0,0,0,0,0,0,-3.102,-3.1028,-3.1055,-3.1046,-3.1051,-3.1112,-3.1047,-3.1041,-3.1051,-3.1044,-3.1039,-3.1035,-3.1013,-3.106,-3.1066,-3.1107,-3.1025,-3.118,-3.1186,-3.1191,-3.1267,-3.128,-3.1291,0,0,0,0,0,-3.1018,-3.1077,-3.1057,-3.1063,-3.1084,-3.1114,-3.1117,-3.109,-3.1055,-3.1082,-3.107,-3.1036,-3.1099,-3.1065,-3.1072,-3.1114,-3.1178,-3.1185,-3.1191,-3.1261,-3.1277,-3.1291,0,0,0,0,0,0,-3.1091,-3.1076,-3.1052,-3.1111,-3.1114,-3.1103,-3.1136,-3.1107,-3.1121,-3.1114,-3.1079,-3.1079,-3.113,-3.1126,-3.1089,-3.1183,-3.1132,-3.114,-3.1184,-3.1198,-3.121,-3.1211,-3.1027,0,0,0,0,0,-3.1114,-3.114,-3.1125,-3.1177,-3.118,-3.1158,-3.117,-3.1149,-3.1151,-3.1153,-3.1144,-3.1148,-3.1169,-3.1183,-3.1201,-3.1266,-3.1264,-3.1298,-3.131,-3.132,-3.1328,-3.1362,-3.1377,-3.1216,-3.1216,-3.1216,0,0,-3.1162,-3.1156,-3.1175,-3.1192,-3.1192,-3.122,-3.116,-3.1191,-3.1212,-3.1157,-3.12,-3.1194,-3.1196,-3.1252,-3.1276,-3.125,-3.1371,-3.1328,-3.1336,-3.1339,-3.137,-3.1385,-3.1399,-3.1221,-3.122,-3.1219,0,0,-3.1263,-3.1261,-3.1305,-3.1307,-3.1308,-3.1292,-3.1303,-3.1296,-3.129,-3.1332,-3.1292,-3.1315,-3.1352,-3.1355,-3.1361,-3.1463,-3.1432,-3.147,-3.1533,-3.1567,-3.158,-3.1591,-3.1628,-3.1642,-3.1477,-3.1478,-3.1478,0,-3.1322,-3.1362,-3.1331,-3.1366,-3.1375,-3.1327,-3.1371,-3.1374,-3.1381,-3.1388,-3.1359,-3.1404,-3.1402,-3.1457,-3.1482,-3.1489,-3.15,-3.1471,-3.158,-3.1591,-3.1601,-3.1636,-3.165,-3.1482,-3.1482,-3.1481,-3.1481,0,-3.1435,-3.1463,-3.1498,-3.1507,-3.1519,-3.1559,-3.1534,-3.1551,-3.1528,-3.1516,-3.156,-3.1555,-3.1572,-3.1583,-3.1561,-3.1636,-3.162,-3.1586,-3.1535,-3.1622,-3.1654,-3.1667,-3.1489,-3.1487,-3.1486,-3.1485,0,0,-3.1583,-3.1573,-3.1587,-3.159,-3.1588,-3.1609,-3.1646,-3.1662,-3.1678,-3.1684,-3.1714,-3.1746,-3.1715,-3.1722,-3.17,-3.173,-3.1812,-3.1692,-3.1692,-3.1715,-3.1894,-3.192,-3.1936,-3.179,-3.1793,-3.1795,-3.1894,0,-3.1681,-3.1744,-3.1718,-3.1783,-3.1809,-3.1764,-3.1796,-3.1798,-3.1788,-3.1808,-3.1796,-3.1819,-3.1776,-3.178,-3.1807,-3.1796,-3.1847,-3.1788,-3.1819,-3.182,-3.1821,-3.1953,-3.1981,-3.2075,-3.1907,-3.1909,-3.191,0,-3.1805,-3.1817,-3.1886,-3.1879,-3.1889,-3.1918,-3.1931,-3.1951,-3.1952,-3.1942,-3.195,-3.1922,-3.1957,-3.1906,-3.1955,-3.1915,-3.1926,-3.1923,-3.1925,-3.1928,-3.1871,-3.196,-3.2104,-3.2119,-3.193,-3.1928,-3.1927,0,-3.1908,-3.194,-3.1985,-3.199,-3.1983,-3.2005,-3.2003,-3.2001,-3.2013,-3.2024,-3.2031,-3.2046,-3.2054,-3.2066,-3.2043,-3.2007,-3.2095,-3.2041,-3.2089,-3.2089,-3.211,-3.2109,-3.2259,-3.2116,-3.2115,-3.2115,-3.2115,0,-3.2021,-3.2065,-3.2031,-3.2059,-3.2107,-3.2076,-3.2124,-3.2117,-3.2116,-3.2142,-3.2103,-3.2128,-3.2094,-3.2116,-3.2098,-3.2141,-3.2145,-3.2139,-3.2133,-3.2143,-3.2144,-3.215,-3.2143,-3.2119,-3.2118,-3.2117,-3.2117,0,-3.2144,-3.2123,-3.217,-3.2159,-3.2157,-3.2193,-3.2184,-3.2209,-3.2196,-3.2229,-3.2235,-3.2214,-3.2237,-3.2215,-3.2237,-3.2224,-3.2283,-3.2268,-3.2283,-3.2279,-3.2328,-3.2324,-3.2488,-3.2508,-3.2351,-3.2352,-3.2354,0,-3.2219,-3.2251,-3.2244,-3.2259,-3.226,-3.2283,-3.2295,-3.2265,-3.2279,-3.2282,-3.2308,-3.2328,-3.2343,-3.2382,-3.2369,-3.2386,-3.2371,-3.2427,-3.2374,-3.2382,-3.2373,-3.2372,-3.2375,-3.2439,-3.2441,-3.2442,-3.2443,0,-3.2354,-3.2342,-3.236,-3.2375,-3.2389,-3.2399,-3.2406,-3.2421,-3.239,-3.2407,-3.2431,-3.2442,-3.2465,-3.2486,-3.2498,-3.2496,-3.2465,-3.246,-3.2472,-3.2483,-3.2491,-3.2488,-3.2314,-3.2457,-3.2456,-3.2455,-3.2454,-3.2453,-3.2455,-3.2482,-3.2482,-3.2503,-3.2505,-3.2513,-3.2536,-3.2526,-3.2545,-3.2561,-3.2542,-3.2571,-3.2571,-3.2585,-3.2587,-3.2609,-3.2586,-3.2603,-3.2607,-3.2612,-3.262,-3.2486,-3.2611,-3.2611,-3.261,-3.261,-3.261,0,-3.2589,-3.2586,-3.2606,-3.2617,-3.2634,-3.2603,-3.2609,-3.2626,-3.2652,-3.2655,-3.267,-3.2697,-3.2717,-3.2705,-3.2722,-3.2743,-3.2729,-3.2748,-3.2747,-3.2747,-3.264,-3.2628,-3.2759,-3.2759,-3.2759,-3.2759,-3.2759,-3.2759,-3.266,-3.2705,-3.2693,-3.2738,-3.2734,-3.2763,-3.2769,-3.2776,-3.2778,-3.281,-3.2827,-3.2819,-3.2816,-3.2832,-3.2849,-3.2845,-3.2853,-3.2878,-3.2869,-3.2769,-3.2755,-3.2741,-3.273,-3.288,-3.288,-3.2975,-3.2976,-3.2977]},{"header":{"parameterUnit":"m.s-1","parameterCategory":1,"la1":30.2991,"la2":30.254,"lo1":-89.0895,"lo2":-89.0444,"dy":0.0017,"dx":0.0017,"nx":28,"ny":28,"refTime":"2024-10-16T03:00:00:Z","depth":0,"parameterNumber":3,"parameterNumberName":"V-component_of_WINDS"},"data":[0,0,0,0,0,0,0,0,0,0,0,0,0,0,0,0,0,0,0,0,0,0,0,0,0,0,0,0,0,0,0,0,0,0,0,0,0,0,0,0,0,0,0,0,0,0,0,0,0,0,0,0,0,0,0,0,0,0,-6.7869,-6.7869,0,-6.7926,-6.7927,-6.7927,-6.7882,-6.788,-6.7878,-6.7876,-6.7929,-6.7932,-6.7935,0,0,0,0,0,0,0,0,0,0,0,0,0,-6.7715,-6.7718,-6.7869,-6.7869,-6.787,-6.7926,-6.7927,-6.7927,-6.7882,-6.788,-6.7877,-6.7875,-6.7928,-6.7932,-6.7936,0,0,0,0,0,0,0,0,0,0,0,0,0,-6.7778,-6.7719,-6.7868,-6.7854,-6.7854,-6.7926,-6.7927,-6.7928,-6.7882,-6.788,-6.7877,-6.7874,-6.7927,-6.7931,-6.7936,-6.8023,0,0,-6.7951,-6.7953,0,0,0,0,0,0,0,0,-6.7774,-6.7783,-6.7856,-6.7855,-6.7855,-6.7894,-6.7892,-6.796,-6.7883,-6.7871,-6.7876,-6.7873,-6.7919,-6.7924,-6.7941,-6.8026,-6.8028,-6.7951,-6.7954,-6.7956,-6.7958,0,0,0,0,0,0,0,-6.777,-6.7781,-6.7891,-6.7857,-6.7856,-6.7843,-6.7849,-6.7904,-6.791,-6.7872,-6.7869,-6.7877,-6.7918,-6.7937,-6.7942,-6.8029,-6.7951,-6.7955,-6.7958,-6.796,-6.8189,-6.8192,0,0,0,0,0,0,-6.7768,-6.7777,-6.7889,-6.7893,-6.7807,-6.7848,-6.7855,-6.7884,-6.791,-6.7911,-6.7879,-6.7874,-6.793,-6.7937,-6.7944,-6.8049,-6.7956,-6.7961,-6.7963,-6.8186,-6.819,-6.8193,0,0,0,0,0,0,-6.7765,-6.7778,-6.7887,-6.7834,-6.7847,-6.7854,-6.7887,-6.7887,-6.7905,-6.7915,-6.7915,-6.7897,-6.7928,-6.7937,-6.8005,-6.805,-6.7963,-6.7967,-6.8182,-6.8187,-6.8191,-6.8259,0,0,0,0,0,0,-6.776,-6.7777,-6.7812,-6.7835,-6.785,-6.7948,-6.789,-6.789,-6.7914,-6.7909,-6.7932,-6.7933,-6.7926,-6.7998,-6.8009,-6.8055,-6.7971,-6.8178,-6.8184,-6.819,-6.8253,-6.8265,-6.8276,0,0,0,0,0,-6.7755,-6.7827,-6.7814,-6.7827,-6.7894,-6.7951,-6.7959,-6.7952,-6.7918,-6.7952,-6.7959,-6.7933,-6.8043,-6.8005,-6.8018,-6.8065,-6.8175,-6.8182,-6.8189,-6.8247,-6.8263,-6.8276,0,0,0,0,0,0,-6.7806,-6.783,-6.7815,-6.7897,-6.7923,-6.7943,-6.7986,-6.7968,-6.8002,-6.7995,-6.7982,-6.7988,-6.8059,-6.8069,-6.8026,-6.8152,-6.8103,-6.8114,-6.8143,-6.8158,-6.817,-6.8166,-6.7975,0,0,0,0,0,-6.7827,-6.7874,-6.7891,-6.7962,-6.7976,-6.7979,-6.8003,-6.7996,-6.802,-6.803,-6.8042,-6.8066,-6.8106,-6.8132,-6.8169,-6.8254,-6.8258,-6.8293,-6.8304,-6.8314,-6.8323,-6.8369,-6.8385,-6.8217,-6.8217,-6.8216,0,0,-6.787,-6.7889,-6.7919,-6.7973,-6.7991,-6.8038,-6.7988,-6.8039,-6.8074,-6.8037,-6.8103,-6.8112,-6.8137,-6.8214,-6.8248,-6.8224,-6.837,-6.8323,-6.8331,-6.8335,-6.8378,-6.8394,-6.8408,-6.8221,-6.8221,-6.822,0,0,-6.7974,-6.7993,-6.8055,-6.8075,-6.8105,-6.8107,-6.8122,-6.8146,-6.8151,-6.8217,-6.8191,-6.823,-6.83,-6.8319,-6.8338,-6.8451,-6.8428,-6.8463,-6.8525,-6.857,-6.8583,-6.8595,-6.8635,-6.865,-6.8472,-6.8472,-6.8472,0,-6.8024,-6.8096,-6.8088,-6.8143,-6.8167,-6.8138,-6.82,-6.8219,-6.8259,-6.8276,-6.8249,-6.8336,-6.8351,-6.8432,-6.846,-6.8476,-6.8492,-6.846,-6.8582,-6.8594,-6.8604,-6.8643,-6.8658,-6.8476,-6.8476,-6.8475,-6.8475,0,-6.8155,-6.8206,-6.8251,-6.8294,-6.8323,-6.838,-6.838,-6.841,-6.84,-6.8404,-6.8472,-6.8489,-6.853,-6.8548,-6.8537,-6.8628,-6.8613,-6.8584,-6.8535,-6.8625,-6.8661,-6.8675,-6.8482,-6.8481,-6.8479,-6.8478,0,0,-6.8292,-6.8331,-6.8348,-6.8367,-6.8398,-6.8436,-6.8492,-6.8534,-6.8561,-6.8589,-6.8635,-6.8695,-6.867,-6.8691,-6.8682,-6.8722,-6.8811,-6.8688,-6.8689,-6.8711,-6.8912,-6.8934,-6.8951,-6.8796,-6.8798,-6.8801,-6.891,0,-6.8398,-6.8498,-6.8493,-6.8586,-6.8633,-6.8607,-6.8655,-6.8679,-6.8685,-6.8723,-6.8728,-6.8772,-6.8734,-6.8748,-6.8785,-6.8792,-6.8851,-6.8784,-6.8838,-6.884,-6.8833,-6.897,-6.8993,-6.9095,-6.8924,-6.8926,-6.8928,0,-6.8534,-6.857,-6.8669,-6.8695,-6.8714,-6.8758,-6.8797,-6.8835,-6.8861,-6.8862,-6.8888,-6.8873,-6.8928,-6.8878,-6.8954,-6.8909,-6.893,-6.8937,-6.894,-6.8945,-6.889,-6.8979,-6.9127,-6.9143,-6.895,-6.8948,-6.8947,0,-6.8625,-6.8698,-6.8767,-6.8784,-6.8815,-6.8847,-6.8861,-6.8885,-6.8911,-6.8944,-6.8961,-6.8999,-6.902,-6.9049,-6.9045,-6.9009,-6.9122,-6.9072,-6.9124,-6.9125,-6.9149,-6.9148,-6.9304,-6.9163,-6.9163,-6.9162,-6.9162,0,-6.8744,-6.8805,-6.8808,-6.8851,-6.8919,-6.8912,-6.8979,-6.8989,-6.901,-6.9053,-6.9032,-6.9072,-6.9064,-6.9103,-6.91,-6.9163,-6.9172,-6.9174,-6.9173,-6.9177,-6.9177,-6.9191,-6.9184,-6.9166,-6.9165,-6.9165,-6.9164,0,-6.8857,-6.8861,-6.8935,-6.896,-6.8967,-6.9016,-6.9037,-6.9076,-6.908,-6.9135,-6.9147,-6.9153,-6.9199,-6.9198,-6.9249,-6.9246,-6.9325,-6.9315,-6.9317,-6.9315,-6.9368,-6.9363,-6.9539,-6.9562,-6.9405,-6.9407,-6.9408,0,-6.8933,-6.898,-6.9011,-6.9039,-6.9056,-6.9102,-6.9129,-6.9124,-6.9153,-6.9187,-6.9222,-6.9266,-6.9302,-6.9376,-6.9384,-6.9423,-6.9414,-6.9473,-6.9419,-6.9422,-6.9415,-6.9413,-6.9418,-6.9483,-6.9485,-6.9486,-6.9487,0,-6.9067,-6.9068,-6.9109,-6.9152,-6.9185,-6.9218,-6.9247,-6.9271,-6.9269,-6.9303,-6.9351,-6.9378,-6.9432,-6.9476,-6.9514,-6.9526,-6.9507,-6.9504,-6.9519,-6.9523,-6.9523,-6.9525,-6.9346,-6.95,-6.9499,-6.9498,-6.9497,-6.9497,-6.9164,-6.9206,-6.9234,-6.9281,-6.9304,-6.9332,-6.9371,-6.9382,-6.9422,-6.9467,-6.9461,-6.9514,-6.9539,-6.9588,-6.9605,-6.9645,-6.9624,-6.9645,-6.965,-6.9655,-6.9662,-6.9517,-6.9652,-6.9651,-6.9651,-6.9651,-6.9651,0,-6.9298,-6.9316,-6.9359,-6.9403,-6.944,-6.9421,-6.9453,-6.9484,-6.9532,-6.9558,-6.9594,-6.9649,-6.9692,-6.9704,-6.9745,-6.9776,-6.9768,-6.9787,-6.9784,-6.9788,-6.9678,-6.9662,-6.9792,-6.9792,-6.9792,-6.9792,-6.9792,-6.9792,-6.9372,-6.9442,-6.9446,-6.9525,-6.9542,-6.9596,-6.9616,-6.9642,-6.9663,-6.9727,-6.9763,-6.9772,-6.9792,-6.9834,-6.9872,-6.9875,-6.9891,-6.9914,-6.9912,-6.981,-6.9795,-6.9782,-6.9767,-6.9917,-6.9917,-7.0019,-7.002,-7.002]}]]